Time,TemperatureF,DewpointF,PressureIn,WindDirection,WindDirectionDegrees,WindSpeedMPH,WindSpeedGustMPH,Humidity,HourlyPrecipIn,Conditions,Clouds,dailyrainin,SolarRadiationWatts/m^2,SoftwareType,DateUTC
2013-08-20 00:01:00,87.1,56.1,29.71,ENE,63,1.0,1.0,35,0.00,,,0.00,0,Wunderground v.1.15,2013-08-20 07:01:00,
2013-08-20 00:31:00,87.7,55.9,29.71,ENE,63,0.0,1.0,34,0.00,,,0.00,0,Wunderground v.1.15,2013-08-20 07:31:00,
2013-08-20 01:01:00,87.4,56.4,29.71,East,91,1.0,1.0,35,0.00,,,0.00,0,Wunderground v.1.15,2013-08-20 08:01:00,
2013-08-20 01:31:00,86.9,56.0,29.71,East,96,0.0,0.0,35,0.00,,,0.00,0,Wunderground v.1.15,2013-08-20 08:31:00,
2013-08-20 02:01:00,86.0,55.9,29.72,East,96,0.0,0.0,36,0.00,,,0.00,0,Wunderground v.1.15,2013-08-20 09:01:00,
2013-08-20 02:31:00,85.2,56.7,29.73,ENE,71,3.0,3.0,38,0.00,,,0.00,0,Wunderground v.1.15,2013-08-20 09:31:00,
2013-08-20 03:01:00,85.3,57.5,29.75,ESE,110,3.0,3.0,39,0.00,,,0.00,0,Wunderground v.1.15,2013-08-20 10:01:00,
2013-08-20 03:31:00,85.1,58.1,29.75,ESE,118,4.0,6.0,40,0.00,,,0.00,0,Wunderground v.1.15,2013-08-20 10:31:00,
2013-08-20 04:01:00,84.8,57.1,29.75,SSE,163,2.0,3.0,39,0.00,,,0.00,0,Wunderground v.1.15,2013-08-20 11:01:00,
2013-08-20 04:31:00,84.7,56.3,29.74,SE,144,2.0,2.0,38,0.00,,,0.00,0,Wunderground v.1.15,2013-08-20 11:31:00,
2013-08-20 05:01:00,84.8,57.1,29.74,ESE,119,3.0,3.0,39,0.00,,,0.00,0,Wunderground v.1.15,2013-08-20 12:01:00,
2013-08-20 05:31:00,83.9,57.0,29.74,East,82,1.0,4.0,40,0.00,,,0.00,0,Wunderground v.1.15,2013-08-20 12:31:00,
2013-08-20 06:01:00,82.5,57.7,29.73,SE,146,0.0,0.0,43,0.00,,,0.00,14,Wunderground v.1.15,2013-08-20 13:01:00,
2013-08-20 06:31:00,82.0,58.6,29.73,SE,146,0.0,0.0,45,0.00,,,0.00,72,Wunderground v.1.15,2013-08-20 13:31:00,
2013-08-20 07:01:00,83.2,59.0,29.73,SSE,149,0.0,1.0,44,0.00,,,0.00,181,Wunderground v.1.15,2013-08-20 14:01:00,
2013-08-20 07:31:00,84.9,59.2,29.73,SSE,161,1.0,1.0,42,0.00,,,0.00,341,Wunderground v.1.15,2013-08-20 14:31:00,
2013-08-20 08:01:00,86.7,59.5,29.73,SW,225,1.0,2.0,40,0.00,,,0.00,295,Wunderground v.1.15,2013-08-20 15:01:00,
2013-08-20 08:31:00,88.3,59.5,29.73,South,184,1.0,1.0,38,0.00,,,0.00,559,Wunderground v.1.15,2013-08-20 15:31:00,
2013-08-20 09:01:00,90.4,59.0,29.73,SW,231,3.0,3.0,35,0.00,,,0.00,624,Wunderground v.1.15,2013-08-20 16:01:00,
2013-08-20 09:31:00,91.7,58.5,29.73,SSW,195,3.0,3.0,33,0.00,,,0.00,721,Wunderground v.1.15,2013-08-20 16:31:00,
2013-08-20 10:01:00,94.6,60.2,29.73,SSW,193,3.0,4.0,32,0.00,,,0.00,953,Wunderground v.1.15,2013-08-20 17:01:00,
2013-08-20 10:31:00,95.2,60.7,29.73,SSW,205,4.0,4.0,32,0.00,,,0.00,895,Wunderground v.1.15,2013-08-20 17:31:00,
2013-08-20 11:01:00,97.4,60.8,29.72,NW,304,3.0,3.0,30,0.00,,,0.00,668,Wunderground v.1.15,2013-08-20 18:01:00,
2013-08-20 11:31:00,97.4,60.8,29.71,SSE,157,3.0,3.0,30,0.00,,,0.00,619,Wunderground v.1.15,2013-08-20 18:31:00,
2013-08-20 12:01:00,99.9,61.0,29.70,WSW,246,3.0,3.0,28,0.00,,,0.00,1035,Wunderground v.1.15,2013-08-20 19:01:00,
2013-08-20 12:31:00,100.1,60.1,29.68,NW,323,4.0,4.0,27,0.00,,,0.00,958,Wunderground v.1.15,2013-08-20 19:31:00,
2013-08-20 13:01:00,101.1,61.0,29.66,WSW,249,4.0,7.0,27,0.00,,,0.00,947,Wunderground v.1.15,2013-08-20 20:01:00,
2013-08-20 13:31:00,102.7,60.1,29.65,West,281,3.0,3.0,25,0.00,,,0.00,965,Wunderground v.1.15,2013-08-20 20:31:00,
2013-08-20 14:01:00,97.5,58.9,29.65,ENE,59,11.0,11.0,28,0.00,,,0.00,265,Wunderground v.1.15,2013-08-20 21:01:00,
2013-08-20 14:31:00,86.7,64.1,29.65,ENE,64,7.0,8.0,47,0.00,,,0.00,118,Wunderground v.1.15,2013-08-20 21:31:00,
2013-08-20 15:01:00,77.1,64.4,29.65,South,186,4.0,4.0,65,0.12,,,0.14,42,Wunderground v.1.15,2013-08-20 22:01:00,
2013-08-20 15:31:00,84.0,63.4,29.67,ENE,77,8.0,8.0,50,0.00,,,0.14,14,Wunderground v.1.15,2013-08-20 22:31:00,
2013-08-20 16:01:00,82.7,61.6,29.68,ENE,76,4.0,4.0,49,0.00,,,0.14,18,Wunderground v.1.15,2013-08-20 23:01:00,
2013-08-20 16:31:00,83.5,61.1,29.69,ENE,76,2.0,5.0,47,0.00,,,0.14,32,Wunderground v.1.15,2013-08-20 23:31:00,
2013-08-20 17:01:00,82.8,65.0,29.69,ENE,77,4.0,4.0,55,0.00,,,0.14,44,Wunderground v.1.15,2013-08-21 00:01:00,
2013-08-20 17:31:00,82.0,65.8,29.69,ENE,65,1.0,1.0,58,0.00,,,0.15,49,Wunderground v.1.15,2013-08-21 00:31:00,
2013-08-20 18:01:00,82.4,65.6,29.69,NE,49,0.0,2.0,57,0.00,,,0.15,26,Wunderground v.1.15,2013-08-21 01:01:00,
2013-08-20 18:31:00,81.5,68.1,29.72,SW,215,0.0,0.0,64,0.00,,,0.15,11,Wunderground v.1.15,2013-08-21 01:31:00,
2013-08-20 19:01:00,82.1,64.3,29.72,North,11,4.0,8.0,55,0.00,,,0.15,0,Wunderground v.1.15,2013-08-21 02:01:00,
2013-08-20 19:31:00,83.0,63.6,29.74,SSE,157,1.0,2.0,52,0.00,,,0.15,0,Wunderground v.1.15,2013-08-21 02:31:00,
2013-08-20 20:01:00,82.0,62.6,29.76,SSE,157,2.0,3.0,52,0.00,,,0.15,0,Wunderground v.1.15,2013-08-21 03:01:00,
2013-08-20 20:31:00,81.8,61.9,29.80,ESE,121,3.0,6.0,51,0.00,,,0.15,0,Wunderground v.1.15,2013-08-21 03:31:00,
2013-08-20 21:01:00,81.7,60.7,29.81,ESE,107,4.0,4.0,49,0.00,,,0.15,0,Wunderground v.1.15,2013-08-21 04:01:00,
2013-08-20 21:31:00,81.4,60.4,29.82,East,80,3.0,5.0,49,0.00,,,0.15,0,Wunderground v.1.15,2013-08-21 04:31:00,
2013-08-20 22:01:00,81.6,60.0,29.82,ENE,72,3.0,7.0,48,0.00,,,0.15,0,Wunderground v.1.15,2013-08-21 05:01:00,
2013-08-20 22:31:00,81.8,59.0,29.82,East,84,4.0,4.0,46,0.00,,,0.15,0,Wunderground v.1.15,2013-08-21 05:31:00,
2013-08-20 23:01:00,81.4,59.8,29.81,ENE,74,1.0,2.0,48,0.00,,,0.15,0,Wunderground v.1.15,2013-08-21 06:01:00,
2013-08-20 23:30:00,80.9,60.5,29.79,East,84,2.0,2.0,50,0.00,,,0.15,0,Wunderground v.1.15,2013-08-21 06:30:00,